Akron, OH

5:57 AM EDT on April 24, 2017 (GMT -0400)
Akron Fulton International

Weather History for KAKR - May, 2014

Change the Weather History Date:

Monday, May 5, 2014

  Actual Average (KCAK) Record (KCAK)
Temperature  
Mean Temperature 46 °F -  
Max Temperature 57 °F 67 °F 91 °F (1895)
Min Temperature 34 °F 44 °F 30 °F (1900)
Degree Days  
Heating Degree Days 20    
Moisture  
Dew Point 35 °F    
Average Humidity 64    
Maximum Humidity 89    
Minimum Humidity 40    
Precipitation  
Precipitation 0.00 in - - ()
Sea Level Pressure  
Sea Level Pressure 30.02 in    
Wind  
Wind Speed 2 mph (ENE)    
Max Wind Speed 14 mph    
Max Gust Speed -    
Visibility 10 miles    
Events      
Averages and records for this station are not official NWS values.
T = Trace of Precipitation, MM = Missing Value Source: NWS Daily Summary

Daily Weather History Graph

Daily Weather History Graph

Search for Another Location

Airport or City:

Trip Planner

Search our weather history database for the weather conditions in past years. The results will help you decide how hot, cold, wet, or windy it might be!

Date:

Astronomy

May. 05, 2014 Rise Set
Actual Time 6:18 AM EDT 8:26 PM EDT
Civil Twilight 5:48 AM EDT 8:57 PM EDT
Nautical Twilight 5:11 AM EDT 9:34 PM EDT
Astronomical Twilight 4:30 AM EDT 10:15 PM EDT
Moon 11:37 AM EDT (5/5) 1:10 AM EDT (5/5)
Length of Visible Light 15h 08m
Length of Day
14h 08m
Waxing Crescent, 36% of the Moon is Illuminated
May 5
Waxing Crescent
May 6
First Quarter
May 14
Full
May 21
Last Quarter
May 28
New

Hourly Weather History & Observations

Time (EDT) Temp. Dew Point Humidity Pressure Visibility Wind Dir Wind Speed Gust Speed Precip Events Conditions
12:54 AM 39.9 °F 34.0 °F 79% 30.10 in 10.0 mi Calm Calm - N/A   Clear
1:54 AM 37.0 °F 33.1 °F 86% 30.08 in 10.0 mi Calm Calm - N/A   Clear
2:54 AM 39.0 °F 34.0 °F 82% 30.06 in 10.0 mi Calm Calm - N/A   Clear
3:54 AM 39.0 °F 34.0 °F 82% 30.05 in 10.0 mi Calm Calm - N/A   Clear
4:54 AM 37.0 °F 33.1 °F 86% 30.05 in 10.0 mi Calm Calm - N/A   Clear
5:54 AM 34.0 °F 30.9 °F 89% 30.06 in 10.0 mi Calm Calm - N/A   Clear
6:54 AM 37.0 °F 34.0 °F 89% 30.09 in 10.0 mi Calm Calm - N/A   Clear
7:54 AM 43.0 °F 37.9 °F 82% 30.09 in 10.0 mi Calm Calm - N/A   Partly Cloudy
8:54 AM 48.0 °F 35.1 °F 61% 30.09 in 10.0 mi ENE 8.1 mph - N/A   Clear
9:54 AM 48.9 °F 34.0 °F 56% 30.06 in 10.0 mi ENE 8.1 mph - N/A   Clear
10:54 AM 50.0 °F 34.0 °F 54% 30.05 in 10.0 mi East 4.6 mph - N/A   Scattered Clouds
11:54 AM 51.1 °F 33.1 °F 50% 30.06 in 10.0 mi SE 4.6 mph - N/A   Mostly Cloudy
12:54 PM 54.0 °F 35.1 °F 49% 30.05 in 10.0 mi Variable 5.8 mph - N/A   Mostly Cloudy
1:54 PM 53.6 °F 33.8 °F 47% 30.02 in 10.0 mi Variable 5.8 mph - N/A   Overcast
2:54 PM 55.9 °F 35.1 °F 45% 30.01 in 10.0 mi NE 3.5 mph - N/A   Overcast
3:54 PM 55.9 °F 35.1 °F 45% 29.99 in 10.0 mi Variable 3.5 mph - N/A   Overcast
4:54 PM 57.0 °F 33.1 °F 40% 29.96 in 10.0 mi Calm Calm - N/A   Overcast
5:54 PM 54.0 °F 36.0 °F 51% 29.96 in 10.0 mi NE 13.8 mph - N/A   Overcast
6:54 PM 52.0 °F 35.1 °F 53% 29.95 in 10.0 mi ENE 8.1 mph - N/A   Overcast
7:54 PM 52.0 °F 36.0 °F 54% 29.94 in 10.0 mi East 6.9 mph - N/A   Overcast
8:54 PM 52.0 °F 36.0 °F 54% 29.95 in 10.0 mi ENE 3.5 mph - N/A   Overcast
9:54 PM 51.1 °F 37.0 °F 59% 29.96 in 10.0 mi North 3.5 mph - N/A   Overcast
10:54 PM 50.0 °F 37.9 °F 63% 29.96 in 10.0 mi NNE 3.5 mph - N/A   Overcast
11:54 PM 48.9 °F 39.0 °F 69% 29.96 in 10.0 mi NNE 6.9 mph - N/A   Overcast